Solander Island, British Columbia

4:18 PM PDT on June 24, 2017 (GMT -0700)
Solander Island

Weather History for CWRU - February, 2014

Change the Weather History Date:

Monday, February 24, 2014

  Actual Average Record
Temperature  
Mean Temperature 42 °F -  
Max Temperature 47 °F - - ()
Min Temperature 38 °F - - ()
Degree Days  
Heating Degree Days 22    
Moisture  
Dew Point -    
Average Humidity    
Maximum Humidity    
Minimum Humidity    
Precipitation  
Precipitation 0.08 in - - ()
Sea Level Pressure  
Sea Level Pressure 29.87 in    
Wind  
Wind Speed 28 mph ()    
Max Wind Speed 44 mph    
Max Gust Speed 58 mph    
T = Trace of Precipitation, MM = Missing Value Source: Averaged Metar Reports

Daily Weather History Graph

Daily Weather History Graph

Search for Another Location

Airport or City:

Trip Planner

Search our weather history database for the weather conditions in past years. The results will help you decide how hot, cold, wet, or windy it might be!

Date:

Astronomy

Feb. 24, 2014 Rise Set
Actual Time 7:24 AM PST 6:05 PM PST
Civil Twilight 6:52 AM PST 6:38 PM PST
Nautical Twilight 6:14 AM PST 7:16 PM PST
Astronomical Twilight 5:37 AM PST 7:53 PM PST
Moon 3:48 AM PST 12:54 PM PST
Length of Visible Light 11h 46m
Length of Day
10h 40m
Waning Crescent, 27% of the Moon is Illuminated
Feb 24
Waning Crescent
Mar 1
New
Mar 8
First Quarter
Mar 16
Full
Mar 23
Last Quarter

Hourly Weather History & Observations

Time (PST) Temp. Windchill Dew Point Humidity Pressure Visibility Wind Dir Wind Speed Gust Speed Precip Events Conditions
12:00 AM 39.7 °F 26.1 °F - N/A% 29.79 in - ESE 43.7 mph 57.5 mph N/A   Unknown
1:00 AM 39.6 °F 26.3 °F - N/A% 29.82 in - ESE 40.3 mph 46.0 mph N/A   Unknown
2:00 AM 39.7 °F 26.7 °F - N/A% 29.81 in - ESE 39.1 mph 46.0 mph N/A   Unknown
3:00 AM 38.3 °F 24.9 °F - N/A% 29.82 in - ESE 38.0 mph 44.9 mph N/A   Unknown
4:00 AM 40 °F - - % 29.83 in - ESE 36.8 mph - -  
4:00 AM 38.3 °F 25.1 °F - N/A% 29.83 in - ESE 36.8 mph 44.9 mph N/A   Unknown
5:00 AM 40.6 °F 28.5 °F - N/A% 29.85 in - ESE 35.7 mph 42.6 mph 0.01 in   Unknown
6:00 AM 41.2 °F 29.4 °F - N/A% 29.86 in - ESE 34.5 mph 41.4 mph N/A   Unknown
7:00 AM 41.5 °F 30.6 °F - N/A% 29.86 in - ESE 29.9 mph 38.0 mph N/A   Unknown
8:00 AM 41.9 °F 30.9 °F - N/A% 29.87 in - ESE 31.1 mph - N/A   Unknown
9:00 AM 42.6 °F 32.6 °F - N/A% 29.88 in - ESE 26.5 mph - N/A   Unknown
10:00 AM 43 °F - - % 29.89 in - ESE 21.9 mph - -  
10:00 AM 43.3 °F 34.5 °F - N/A% 29.89 in - ESE 21.9 mph - N/A   Unknown
11:00 AM 43.9 °F 36.8 °F - N/A% 29.92 in - ESE 15.0 mph - N/A   Unknown
12:00 PM 43.3 °F 40.7 °F - N/A% 29.94 in - NE 4.6 mph - 0.03 in   Unknown
1:00 PM 43.3 °F 40.7 °F - N/A% 29.92 in - NE 4.6 mph - 0.03 in   Unknown
2:00 PM 45.9 °F 39.4 °F - N/A% 29.89 in - ESE 15.0 mph - 0.01 in   Unknown
3:00 PM 46.8 °F - - N/A% 29.90 in - ESE 13.8 mph 19.6 mph N/A   Unknown
4:00 PM 47 °F - - % 29.88 in - ESE 18.4 mph - -  
4:00 PM 46.6 °F - - N/A% 29.88 in - ESE 18.4 mph 25.3 mph N/A   Unknown
5:00 PM 46.4 °F 38.7 °F - N/A% 29.88 in - ESE 20.7 mph - N/A   Unknown
6:00 PM 46.2 °F 38.3 °F - N/A% 29.88 in - ESE 21.9 mph 27.6 mph N/A   Unknown
7:00 PM 46.8 °F - - N/A% 29.88 in - ESE 28.8 mph 35.7 mph N/A   Unknown
8:00 PM 46.2 °F 36.8 °F - N/A% 29.88 in - ESE 31.1 mph 39.1 mph N/A   Unknown
9:00 PM 46.0 °F 36.2 °F - N/A% 29.89 in - ESE 33.4 mph 40.3 mph N/A   Unknown
10:00 PM 46 °F - - % 29.88 in - ESE 38.0 mph - -  
10:00 PM 45.5 °F 34.9 °F - N/A% 29.88 in - ESE 38.0 mph 44.9 mph N/A   Unknown
11:00 PM 45.9 °F 35.4 °F - N/A% 29.91 in - ESE 38.0 mph 46.0 mph N/A   Unknown